User: anonymous   Login
Location: Antioch Baptist Church
(32.6696°N, 85.7327°W)
Time: 23:17:04
(UTC+00:00)
Language:

Okean 1 Rocket - Orbit

View from above orbital plane
View from above orbital plane
View from above satellite
View from above satellite

Ground track
Ground track

The orbit data is extracted from the following two-line orbital elements,

1 19275U 88056B   20273.48092512 +.00000103 +00000-0 +97484-5 0  9997
2 19275 082.5127 287.6374 0019253 208.9558 151.0590 14.82758764720030
Epoch (UTC): 29 September 2020 11:32:31
Eccentricity: 0.0019253
inclination: 82.5127°
perigee height: 607 km
apogee height: 634 km
right ascension of ascending node: 287.6374°
argument of perigee: 208.9558°
revolutions per day: 14.82758764
mean anomaly at epoch: 151.0590°
orbit number at epoch: 72003

The dashed part of the orbit path shows where the satellite is in the earth's shadow,  

DLR